Location: Bay Shore Mobile Home Park
(38.5762°N, 75.0841°W)
Time: 18:40:24
(UTC+00:00)

Cosmos 1025 Rocket - Pass Details

Date: 15 November 2025
Orbit: 586 x 610 km, 82.5° (Epoch: 08 December)

Event Time Altitude Azimuth Distance (km) Brightness Sun altitude
Rises 22:10:17 0° 347° (NNW) 2,860 6.4 -5.1°
Reaches altitude 10° 22:12:33 10° 342° (NNW) 1,948 5.6 -5.5°
Maximum altitude 22:16:43 51° 267° (W) 757 4.1 -6.2°
Drops below altitude 10° 22:20:49 10° 191° (SSW) 1,919 6.0 -7.0°
Sets 22:23:03 0° 186° (S) 2,812 6.8 -7.4°
